SL-16 DEB, 18416

Orbit data source: Space-Track

SL-16 DEB, 18416 is space debris in LEO originally from a launch on Wed, 18 Mar 1987 UTC launched from the Tyuratam Missile And Space Complex (TTMTR). Debris objects in space refer to the collection of defunct objects orbiting the Earth. Examples of debris include non-operational satellites, rocket bodies, and fragments generated from explosions, collisions, or faulty payload assembly.

Loading next visibility...
Identifier
18416, 1987-027C
Orbit
LEO
Country
Flag of CISCIS
Related business
Manufacturer
Yuzhnoe
Mission
Spacecraft
Bus & Motor
SEP MOTOR COVER, Unknown motor
Mass
~0 kg wet, ~1 kg dry
Launch date (UTC)
1987-03-18 (39 years ago)
Launch vehicle
Unknown
Launch site
Tyuratam Missile And Space Complex (TTMTR)
Object type
Payload
Rocket body
Debris
Shape & HBR
CONE, 0.2 m
Radar Cross Section
Medium (>0.1 m² and <1 m²)

Expand to show TLE details & history
Last TLE update: 14 hours ago

TLE from 14 hours ago
0 SL-16 DEB
1 18416U 87027C   26254.98987160  .00000028  00000-0  62945-4 0  9991
2 18416  71.0336  86.1094 0188201 329.6690 183.0645 13.77577324983648
Epoch: 2026-09-11T23:45Z
TLE epoch observation values (Epoch: 2026-09-11T23:45:24.906Z)
Latitude
25.81917°
Longitude
-90.77205°
Altitude
1,113.247 km
Speed
7.229 km/s
True Right ascension
17h 06m 20s
True Declination
25° 41' 28"
Sunlit
Object was in daylight at epoch
Visualization orbit readout
Latitude
Unknown
Longitude
Unknown
Altitude
Unknown
Speed
Unknown
Apparent Right ascension
Unknown
Apparent Declination
Unknown
Sunlit
N/A
Visualization observer readout
Local Sidereal Time
06:07:39
Azimuth
Unknown
Elevation
Unknown
Doppler factor
Unknown
Orbital elements
Apogee altitude
1,108.751 km
Perigee altitude
832.149 km
Semi-major axis
7,348.587 km
Eccentricity
0.01882
Inclination
71.0336°
RAAN
86.1094°
Arg. of periapsis
329.669°
True anomaly
182.95186°
Mean anomaly
183.0645°
Eccentric anomaly
183.00792°
Mean motion
3.44538 °/min
Orbital period
104.49 mins
BSTAR
0.000062945
Loading maneuver chart data...
Computing Atmospheric mass density...
Loading historical data...
Loading historical data...
Loading historical data...
Loading historical data...
Loading historical data...
Loading historical data...
Loading historical data...

Documentation

Showing up to 5 results
|